Namest Nad Oslav, Czech Republic

7:38 PM CET on December 15, 2019 (GMT +0100)
Namest

Weather History for LKNA - August, 2019

Change the Weather History Date:

Friday, August 9, 2019

  Actual Average Record
Temperature  
Mean Temperature 71 °F -  
Max Temperature 82 °F - - ()
Min Temperature 60 °F - - ()
Cooling Degree Days 6    
Growing Degree Days 21 (Base 50)    
Moisture  
Dew Point 53 °F    
Average Humidity 51    
Maximum Humidity 94    
Minimum Humidity 29    
Precipitation  
Precipitation 0.00 in - - ()
Sea Level Pressure  
Sea Level Pressure 29.96 in    
Wind  
Wind Speed 6 mph ()    
Max Wind Speed 12 mph    
Max Gust Speed -    
Visibility 14.6 miles    
Events      
T = Trace of Precipitation, MM = Missing Value Source: Averaged Metar Reports

Daily Weather History Graph

Daily Weather History Graph

Search for Another Location

Airport or City:

Astronomy

Aug. 09, 2019 Rise Set
Actual Time 5:38 AM CEST 8:22 PM CEST
Civil Twilight 5:01 AM CEST 8:59 PM CEST
Nautical Twilight 4:15 AM CEST 9:45 PM CEST
Astronomical Twilight 3:19 AM CEST 10:40 PM CEST
Moon 3:50 PM CEST (8/9) 12:23 AM CEST (8/9)
Length of Visible Light 15h 57m
Length of Day
14h 44m
Waxing Gibbous, 68% of the Moon is Illuminated
Aug 9
Waxing Gibbous
Aug 15
Full
Aug 23
Last Quarter
Aug 30
New
Sep 6
First Quarter

Hourly Weather History & Observations

Time (CEST) Temp. Heat Index Dew Point Humidity Pressure Visibility Wind Dir Wind Speed Gust Speed Precip Events Conditions
12:00 AM 68.0 °F - 51.8 °F 56% 29.98 in - West 8.1 mph - N/A   Clear
1:00 AM 64 °F - 52 °F 55% 29.96 in 12 mi WNW 8.9 mph - -   Scattered Clouds
1:00 AM 62.6 °F - 51.8 °F 68% 29.98 in - WNW 9.2 mph - N/A   Clear
2:00 AM 62.6 °F - 51.8 °F 68% 29.98 in - NW 3.5 mph - N/A   Clear
3:00 AM 62 °F - 51 °F 58% 29.97 in 12 mi NW 4.5 mph - -   Scattered Clouds
3:00 AM 62.6 °F - 51.8 °F 68% 29.98 in - NNW 3.5 mph - N/A   Clear
4:00 AM 61 °F - 51 °F 61% 29.98 in 12 mi NW 4.5 mph - -  
4:00 AM 59.0 °F - 51.8 °F 77% 30.01 in - North 3.5 mph - N/A   Clear
5:00 AM 61 °F - 51 °F 61% 29.98 in 12 mi NNW 4.5 mph - -  
5:00 AM 55.4 °F - 53.6 °F 94% 30.01 in - North 4.6 mph - N/A   Clear
6:00 AM 61 °F - 51 °F 62% 29.98 in 19 mi North 4.5 mph - -  
7:00 AM 61 °F - 52 °F 65% 29.99 in 19 mi NNW 6.7 mph - -  
8:00 AM 65 °F - 53 °F 57% 29.99 in 16 mi NNW 4.5 mph - -   Clear
8:00 AM 64.4 °F - 53.6 °F 68% 30.01 in - NNW 3.5 mph - N/A   Clear
9:00 AM 70 °F - 55 °F 48% 29.97 in 16 mi SW 2.2 mph - -   Clear
9:00 AM 71.6 °F - 53.6 °F 53% 30.01 in - Variable 2.3 mph - N/A   Clear
10:00 AM 73.4 °F - 53.6 °F 50% 30.01 in 6.2 mi Variable 2.3 mph - N/A   Partly Cloudy
11:00 AM 75.2 °F - 51.8 °F 44% 30.01 in 6.2 mi SSW 5.8 mph - N/A   Scattered Clouds
12:00 PM 77 °F - 54 °F 35% 29.93 in 19 mi ESE 8.9 mph - -   Scattered Clouds
12:00 PM 75.2 °F - 55.4 °F 50% 30.01 in 6.2 mi ESE 9.2 mph - N/A   Scattered Clouds
1:00 PM 77 °F - 52 °F 30% 29.92 in 16 mi South 11.2 mph - -   Mostly Cloudy
1:00 PM 78.8 °F - 51.8 °F 39% 29.98 in 6.2 mi South 11.5 mph - N/A   Mostly Cloudy
2:00 PM 78.8 °F - 53.6 °F 42% 29.98 in - SE 9.2 mph - N/A   Clear
3:00 PM 81 °F - 54 °F 29% 29.89 in 19 mi East 8.9 mph - -   Partly Cloudy
3:00 PM 78.8 °F - 53.6 °F 42% 29.98 in - ESE 6.9 mph - N/A   Clear
4:00 PM 80 °F - 54 °F 30% 29.88 in 19 mi East 8.9 mph - -   Partly Cloudy
4:00 PM 80.6 °F 80.3 °F 53.6 °F 39% 29.95 in - East 10.4 mph - N/A   Clear
5:00 PM 82.4 °F 81.4 °F 53.6 °F 37% 29.95 in - Variable 6.9 mph - N/A   Clear
6:00 PM 82.4 °F 81.4 °F 53.6 °F 37% 29.95 in - ESE 10.4 mph - N/A   Clear
7:00 PM 79 °F - 55 °F 33% 29.86 in 19 mi SE 11.2 mph - -   Scattered Clouds
8:00 PM 76 °F - 56 °F 39% 29.88 in 19 mi SE 8.9 mph - -   Scattered Clouds
8:00 PM 77.0 °F - 55.4 °F 47% 29.95 in - SSE 8.1 mph - N/A   Clear
9:00 PM 75.2 °F - 55.4 °F 50% 29.95 in - ESE 5.8 mph - N/A   Clear
10:00 PM 72 °F - 56 °F 47% 29.90 in 19 mi ESE 6.7 mph - -   Clear
10:00 PM 73.4 °F - 55.4 °F 53% 29.95 in - ESE 6.9 mph - N/A   Clear
11:00 PM 72 °F - 56 °F 47% 29.88 in 19 mi ESE 8.9 mph - -   Clear
11:00 PM 73.4 °F - 57.2 °F 57% 29.95 in - ESE 6.9 mph - N/A   Clear